Flag for Germany Weather past 2 weeks in Stuhr, Lower Saxony, Germany

Now
55 °F

Partly sunny.


Feels Like: 52 °F
Forecast: 42 / 62 °F
Wind: 13 mph from West

Location: Bremen Airport

Current Time: May 30, 2015 at 5:29:19 PM

Latest Report: May 30, 2015 at 4:50 PM


Visibility: N/A

Pressure: 29.92 "Hg

Humidity: 59%

Dew point: 41 °F

Location of StuhrLocation

Historic Weather in Stuhr — Graph

°F

Stuhr temperature yesterday

Maximum temperature yesterday: 61 °F (at 2:20 PM)
Minimum temperature yesterday: 39 °F (at 3:20 AM)
Average temperature yesterday: 52 °F

Past Weeks' High & Low Weather Summary

 TemperatureHumidityPressure
High66 °F (May 22, 1:50 PM)100% (May 16, 1:50 AM)30.30 "Hg (May 16, 1:50 AM)
Low34 °F (May 16, 5:20 AM)36% (May 25, 4:50 PM)29.59 "Hg (May 18, 7:20 PM)
Average52 °F74%30.01 "Hg
* Reported May 15 4:20 PM — May 30 4:20 PM, Stuhr, Weather by CustomWeather, © 2015

Note: Actual official high and low records may vary slightly from our data, if they occured in-between our weather recording intervals... More about our weather records

Advertising

Stuhr weather history for previous 24 hours

 ConditionsComfort  
Time TempWeatherWind HumidityBarometerVisibility
4:20 PM
Sat, May 30
54 °FPartly sunny.20 mph63%29.89 "HgN/A
3:50 PM54 °FPassing clouds.18 mph63%29.89 "HgN/A
3:20 PM54 °FSprinkles. Scattered clouds.15 mph77%29.89 "HgN/A
2:50 PM52 °FThunderstorms. Partly sunny.18 mph67%29.89 "HgN/A
2:20 PM50 °FSnow flurries. Broken clouds.23 mph71%29.86 "HgN/A
1:50 PM50 °FSprinkles. Scattered clouds.20 mph82%29.86 "HgN/A
1:20 PM55 °FScattered clouds.18 mph63%29.83 "HgN/A
12:50 PM54 °FPartly sunny.16 mph72%29.83 "HgN/A
12:20 PM50 °FSprinkles. Broken clouds.13 mph82%29.86 "HgN/A
11:50 AM46 °FSprinkles. Scattered clouds.18 mph82%29.83 "HgN/A
11:20 AM50 °FSprinkles. Scattered clouds.18 mph76%29.83 "HgN/A
10:50 AM52 °FScattered clouds.20 mph72%29.83 "HgN/A
10:20 AM48 °FScattered clouds.15 mph82%29.80 "HgN/A
9:50 AM52 °FScattered clouds.16 mph67%29.80 "HgN/A
9:20 AM52 °FScattered clouds.16 mph67%29.80 "HgN/A
8:50 AM52 °FScattered clouds.18 mph67%29.77 "HgN/A
8:20 AM52 °FScattered clouds.14 mph72%29.77 "HgN/A
7:50 AM50 °FScattered clouds.15 mph76%29.77 "HgN/A
7:20 AM48 °FScattered clouds.14 mph76%29.77 "HgN/A
6:50 AM48 °FPassing clouds.14 mph82%29.74 "HgN/A
6:20 AM46 °FPassing clouds.13 mph87%29.74 "HgN/A
5:50 AM46 °FPassing clouds.12 mph87%29.74 "HgN/A
5:20 AM46 °FPartly cloudy.12 mph87%29.71 "HgN/A
4:50 AM46 °FPartly cloudy.16 mph82%29.71 "HgN/A
4:20 AM48 °FPassing clouds.18 mph82%29.71 "HgN/A
3:50 AM48 °FPassing clouds.16 mph82%29.68 "HgN/A
3:20 AM48 °FPassing clouds.16 mph82%29.68 "HgN/A
2:50 AM48 °FPassing clouds.15 mph87%29.68 "HgN/A
2:20 AM50 °FPartly cloudy.14 mph82%29.68 "HgN/A
1:50 AM48 °FPartly cloudy.13 mph87%29.68 "HgN/A
1:20 AM50 °FPassing clouds.14 mph82%29.65 "HgN/A
12:50 AM50 °FClear.15 mph82%29.65 "Hg10 mi
12:20 AM50 °FPassing clouds.14 mph82%29.68 "HgN/A
11:50 PM
Fri, May 29
50 °FLight rain. Passing clouds.21 mph82%29.68 "HgN/A
11:20 PM54 °FLight rain. Passing clouds.23 mph72%29.65 "HgN/A
10:20 PM57 °FLight rain. Partly sunny.12 mph55%29.65 "HgN/A
9:50 PM57 °FSunny.8 mph59%29.65 "Hg10 mi
9:20 PM55 °FLight rain. Clear.2 mph77%29.65 "HgN/A
8:50 PM55 °FSunny.2 mph77%29.65 "Hg10 mi
8:20 PM55 °FPassing clouds.5 mph72%29.68 "HgN/A
7:50 PM57 °FPassing clouds.9 mph67%29.68 "HgN/A
7:20 PM61 °FBroken clouds.12 mph48%29.68 "HgN/A
6:50 PM61 °FPartly sunny.14 mph48%29.68 "HgN/A
6:20 PM61 °FBroken clouds.16 mph48%29.68 "HgN/A
5:50 PM61 °FBroken clouds.16 mph48%29.68 "HgN/A
5:20 PM61 °FPartly sunny.16 mph48%29.68 "HgN/A
Weather by CustomWeather, © 2015

See weather overviewHow to use our weather pages